QPF
0.01 0.01 0.01 0.01 0.02 0.01 0.00 0.00 0.00 0.01 0.01 0.01 0.01 0.01 0.01 0.01 0.01 0.01 0.01 0.00 0.00 0.00 0.00 0.00 0.00 0.00 0.01 0.01 0.01 0.01 0.00 0.01 0.02 0.02 0.02 0.02 0.03 0.02 0.01 0.01 0.02 0.02 0.03
0.00 0.01 0.01 0.02 0.02 0.01 0.00 0.00 0.00 0.00 0.00 0.00 0.01 0.01 0.01 0.01 0.01 0.01 0.00 0.01 0.01 0.00 0.00 0.00 0.00 0.00 0.01 0.01 0.01 0.01 0.01 0.01 0.01 0.01 0.01 0.01 0.02 0.02 0.01 0.01 0.02 0.05 0.05
0.00 0.01 0.01 0.02 0.01 0.01 0.00 0.00 0.00 0.00 0.00 0.00 0.00 0.01 0.01 0.01 0.01 0.01 0.01 0.01 0.01 0.01 0.01 0.01 0.01 0.01 0.01 0.01 0.01 0.01 0.01 0.02 0.01 0.01 0.02 0.01 0.01 0.02 0.02 0.02 0.02 0.03 0.02
0.00 0.01 0.01 0.01 0.01 0.01 0.01 0.00 0.00 0.00 0.00 0.01 0.01 0.01 0.01 0.01 0.02 0.02 0.01 0.01 0.01 0.02 0.01 0.01 0.01 0.02 0.02 0.02 0.01 0.01 0.01 0.01 0.02 0.02 0.02 0.01 0.01 0.01 0.02 0.03 0.02 0.03 0.02
0.00 0.00 0.01 0.01 0.02 0.02 0.01 0.01 0.01 0.01 0.01 0.01 0.01 0.01 0.02 0.02 0.02 0.02 0.02 0.02 0.02 0.02 0.02 0.02 0.02 0.03 0.02 0.02 0.02 0.02 0.02 0.02 0.01 0.01 0.01 0.01 0.02 0.03 0.02 0.02 0.03 0.04 0.02
0.00 0.00 0.01 0.01 0.01 0.01 0.01 0.01 0.02 0.02 0.02 0.02 0.02 0.02 0.02 0.03 0.03 0.04 0.04 0.04 0.04 0.04 0.03 0.03 0.04 0.03 0.03 0.04 0.04 0.04 0.03 0.03 0.02 0.01 0.01 0.02 0.03 0.03 0.03 0.04 0.04 0.04 0.03
0.01 0.00 0.00 0.01 0.01 0.01 0.01 0.02 0.02 0.02 0.03 0.03 0.03 0.03 0.03 0.03 0.03 0.04 0.05 0.06 0.07 0.05 0.05 0.05 0.05 0.05 0.05 0.06 0.05 0.04 0.04 0.04 0.02 0.02 0.02 0.02 0.02 0.02 0.03 0.05 0.07 0.07 0.05
0.01 0.00 0.00 0.01 0.01 0.01 0.02 0.02 0.03 0.03 0.03 0.03 0.04 0.04 0.04 0.04 0.05 0.05 0.04 0.05 0.06 0.06 0.07 0.07 0.07 0.07 0.08 0.07 0.05 0.05 0.04 0.04 0.03 0.02 0.02 0.02 0.02 0.01 0.03 0.06 0.10 0.09 0.07
0.01 0.01 0.01 0.01 0.01 0.02 0.02 0.03 0.04 0.03 0.03 0.03 0.04 0.04 0.05 0.05 0.05 0.04 0.04 0.05 0.05 0.07 0.08 0.09 0.10 0.10 0.10 0.08 0.07 0.05 0.04 0.05 0.04 0.03 0.02 0.02 0.02 0.02 0.03 0.08 0.11 0.11 0.10
0.01 0.01 0.02 0.01 0.01 0.02 0.02 0.03 0.04 0.04 0.03 0.02 0.02 0.02 0.03 0.03 0.04 0.04 0.04 0.06 0.06 0.07 0.08 0.09 0.12 0.14 0.14 0.11 0.09 0.08 0.07 0.06 0.05 0.05 0.05 0.03 0.03 0.03 0.04 0.07 0.10 0.11 0.11
0.02 0.02 0.02 0.01 0.01 0.02 0.02 0.03 0.03 0.04 0.03 0.02 0.02 0.02 0.03 0.03 0.03 0.03 0.04 0.05 0.05 0.06 0.08 0.11 0.13 0.13 0.16 0.16 0.13 0.11 0.10 0.08 0.08 0.09 0.06 0.04 0.05 0.06 0.07 0.09 0.10 0.11 0.13
0.02 0.03 0.03 0.03 0.02 0.02 0.02 0.03 0.03 0.03 0.03 0.03 0.03 0.04 0.04 0.04 0.05 0.04 0.03 0.03 0.04 0.08 0.10 0.11 0.12 0.15 0.17 0.15 0.14 0.11 0.09 0.07 0.08 0.08 0.07 0.06 0.06 0.06 0.07 0.07 0.09 0.11 0.14
0.02 0.03 0.03 0.04 0.04 0.02 0.02 0.03 0.03 0.04 0.04 0.04 0.04 0.04 0.05 0.05 0.04 0.03 0.04 0.04 0.06 0.09 0.12 0.17 0.18 0.12 0.14 0.15 0.12 0.09 0.07 0.06 0.06 0.06 0.07 0.07 0.08 0.08 0.07 0.08 0.10 0.11 0.13
0.02 0.02 0.02 0.03 0.03 0.03 0.03 0.04 0.03 0.04 0.04 0.05 0.04 0.03 0.05 0.05 0.05 0.05 0.06 0.07 0.08 0.10 0.13 0.15 0.20 0.18 0.15 0.16 0.14 0.12 0.09 0.07 0.05 0.06 0.06 0.06 0.06 0.07 0.07 0.08 0.09 0.11 0.12
0.04 0.02 0.02 0.02 0.04 0.06 0.07 0.07 0.05 0.04 0.04 0.04 0.04 0.05 0.07 0.08 0.08 0.07 0.07 0.06 0.06 0.08 0.09 0.11 0.12 0.17 0.18 0.13 0.11 0.10 0.10 0.11 0.08 0.06 0.05 0.03 0.04 0.05 0.06 0.08 0.09 0.10 0.11
0.05 0.03 0.02 0.03 0.07 0.09 0.11 0.11 0.07 0.05 0.05 0.05 0.04 0.06 0.07 0.08 0.09 0.08 0.07 0.06 0.06 0.06 0.07 0.07 0.07 0.10 0.11 0.10 0.08 0.07 0.08 0.12 0.10 0.08 0.07 0.06 0.04 0.04 0.05 0.06 0.07 0.08 0.09
0.03 0.03 0.03 0.05 0.09 0.12 0.13 0.13 0.09 0.06 0.06 0.05 0.07 0.09 0.11 0.10 0.08 0.08 0.08 0.07 0.07 0.06 0.07 0.06 0.05 0.06 0.08 0.09 0.07 0.07 0.06 0.08 0.08 0.08 0.08 0.08 0.05 0.04 0.04 0.04 0.05 0.05 0.07
0.02 0.03 0.05 0.07 0.09 0.11 0.12 0.11 0.09 0.08 0.06 0.07 0.09 0.08 0.07 0.06 0.07 0.08 0.08 0.08 0.09 0.06 0.06 0.06 0.06 0.06 0.06 0.06 0.07 0.07 0.07 0.07 0.05 0.06 0.07 0.08 0.08 0.05 0.04 0.03 0.04 0.04 0.05
0.03 0.04 0.06 0.08 0.08 0.11 0.13 0.14 0.10 0.06 0.06 0.07 0.08 0.09 0.08 0.09 0.11 0.12 0.12 0.12 0.09 0.07 0.07 0.05 0.06 0.06 0.06 0.06 0.05 0.05 0.05 0.05 0.05 0.04 0.05 0.07 0.08 0.06 0.06 0.04 0.03 0.03 0.04
0.04 0.04 0.06 0.08 0.10 0.11 0.11 0.09 0.08 0.06 0.05 0.06 0.10 0.13 0.09 0.09 0.11 0.13 0.15 0.14 0.12 0.10 0.09 0.07 0.07 0.06 0.06 0.06 0.05 0.05 0.05 0.04 0.04 0.04 0.04 0.05 0.06 0.05 0.05 0.05 0.05 0.04 0.04
0.03 0.03 0.04 0.05 0.08 0.08 0.09 0.08 0.07 0.06 0.06 0.07 0.06 0.06 0.09 0.12 0.10 0.10 0.11 0.11 0.11 0.10 0.09 0.09 0.09 0.08 0.07 0.06 0.06 0.05 0.04 0.03 0.03 0.04 0.04 0.05 0.06 0.06 0.06 0.06 0.06 0.06 0.04
0.03 0.03 0.04 0.05 0.06 0.06 0.08 0.06 0.06 0.06 0.06 0.07 0.07 0.07 0.10 0.10 0.10 0.09 0.10 0.10 0.11 0.14 0.11 0.10 0.07 0.06 0.06 0.08 0.08 0.07 0.05 0.04 0.03 0.02 0.03 0.03 0.04 0.06 0.07 0.06 0.06 0.07 0.05
0.03 0.03 0.03 0.04 0.05 0.06 0.06 0.05 0.05 0.07 0.06 0.05 0.06 0.07 0.07 0.07 0.09 0.10 0.11 0.13 0.14 0.13 0.11 0.10 0.09 0.08 0.07 0.06 0.08 0.08 0.07 0.05 0.04 0.03 0.02 0.02 0.04 0.04 0.05 0.06 0.06 0.07 0.06
0.03 0.03 0.03 0.04 0.04 0.05 0.05 0.05 0.05 0.06 0.06 0.06 0.08 0.10 0.10 0.09 0.10 0.10 0.10 0.10 0.12 0.11 0.09 0.08 0.07 0.08 0.08 0.07 0.07 0.08 0.08 0.07 0.06 0.04 0.03 0.04 0.05 0.05 0.04 0.05 0.06 0.06 0.06
0.02 0.02 0.02 0.03 0.03 0.03 0.03 0.04 0.05 0.06 0.07 0.07 0.09 0.11 0.09 0.08 0.08 0.08 0.08 0.09 0.10 0.11 0.12 0.12 0.07 0.05 0.06 0.07 0.07 0.08 0.08 0.08 0.07 0.06 0.05 0.05 0.06 0.07 0.07 0.07 0.06 0.06 0.05
0.01 0.02 0.02 0.02 0.02 0.02 0.03 0.05 0.05 0.05 0.06 0.06 0.05 0.06 0.06 0.06 0.06 0.07 0.06 0.07 0.09 0.10 0.10 0.08 0.06 0.05 0.06 0.06 0.06 0.06 0.06 0.06 0.06 0.06 0.06 0.06 0.07 0.07 0.07 0.08 0.07 0.07 0.07
MSLP
1007.20 1007.16 1007.37 1007.77 1008.23 1008.64 1008.90 1008.98 1008.89 1008.72 1008.55 1008.49 1008.59 1008.87 1009.29 1009.79 1010.27 1010.67 1010.94 1011.10 1011.17 1011.21 1011.25 1011.35 1011.50 1011.70 1011.90 1012.08 1012.22 1012.31 1012.36 1012.39 1012.45 1012.54 1012.70 1012.90 1013.13 1013.37 1013.60 1013.80 1013.96 1014.11 1014.25
1007.45 1007.36 1007.52 1007.88 1008.32 1008.72 1009.00 1009.10 1009.04 1008.87 1008.70 1008.62 1008.69 1008.93 1009.32 1009.78 1010.25 1010.64 1010.91 1011.06 1011.12 1011.15 1011.19 1011.27 1011.42 1011.62 1011.82 1012.00 1012.13 1012.19 1012.21 1012.21 1012.23 1012.29 1012.43 1012.64 1012.90 1013.18 1013.46 1013.71 1013.92 1014.09 1014.23
1007.58 1007.45 1007.57 1007.90 1008.34 1008.77 1009.10 1009.26 1009.26 1009.13 1008.97 1008.88 1008.91 1009.09 1009.41 1009.80 1010.19 1010.53 1010.76 1010.89 1010.94 1010.97 1011.02 1011.13 1011.30 1011.52 1011.75 1011.93 1012.05 1012.09 1012.06 1012.00 1011.95 1011.96 1012.06 1012.25 1012.52 1012.83 1013.17 1013.48 1013.74 1013.96 1014.13
1007.63 1007.47 1007.57 1007.90 1008.35 1008.83 1009.21 1009.45 1009.51 1009.45 1009.32 1009.22 1009.21 1009.32 1009.55 1009.84 1010.13 1010.38 1010.55 1010.64 1010.68 1010.72 1010.80 1010.95 1011.17 1011.43 1011.69 1011.90 1012.01 1012.02 1011.93 1011.79 1011.66 1011.59 1011.62 1011.77 1012.03 1012.36 1012.74 1013.11 1013.45 1013.73 1013.97
1007.71 1007.53 1007.62 1007.94 1008.41 1008.91 1009.35 1009.65 1009.78 1009.77 1009.67 1009.57 1009.53 1009.58 1009.71 1009.90 1010.10 1010.25 1010.35 1010.39 1010.41 1010.46 1010.57 1010.77 1011.05 1011.37 1011.67 1011.90 1012.01 1011.99 1011.85 1011.64 1011.41 1011.25 1011.20 1011.28 1011.51 1011.84 1012.24 1012.67 1013.08 1013.45 1013.76
1007.92 1007.73 1007.79 1008.10 1008.56 1009.07 1009.52 1009.84 1010.01 1010.03 1009.96 1009.87 1009.81 1009.82 1009.89 1009.99 1010.10 1010.17 1010.20 1010.19 1010.19 1010.24 1010.37 1010.61 1010.94 1011.30 1011.65 1011.91 1012.03 1012.00 1011.82 1011.54 1011.24 1010.99 1010.86 1010.87 1011.04 1011.35 1011.76 1012.22 1012.70 1013.14 1013.53
1008.33 1008.11 1008.15 1008.41 1008.83 1009.29 1009.71 1010.01 1010.17 1010.21 1010.15 1010.08 1010.02 1010.01 1010.04 1010.10 1010.14 1010.15 1010.12 1010.07 1010.04 1010.07 1010.21 1010.46 1010.81 1011.22 1011.60 1011.89 1012.03 1012.00 1011.81 1011.51 1011.16 1010.85 1010.64 1010.58 1010.69 1010.96 1011.36 1011.83 1012.33 1012.83 1013.29
1008.95 1008.70 1008.69 1008.89 1009.22 1009.59 1009.92 1010.15 1010.27 1010.29 1010.24 1010.18 1010.14 1010.14 1010.17 1010.21 1010.23 1010.20 1010.12 1010.02 1009.95 1009.95 1010.07 1010.31 1010.66 1011.07 1011.47 1011.78 1011.95 1011.95 1011.78 1011.49 1011.14 1010.80 1010.55 1010.44 1010.49 1010.71 1011.06 1011.51 1012.02 1012.54 1013.03
1009.73 1009.47 1009.40 1009.50 1009.71 1009.95 1010.15 1010.28 1010.32 1010.30 1010.25 1010.21 1010.20 1010.24 1010.30 1010.35 1010.35 1010.30 1010.19 1010.05 1009.92 1009.87 1009.93 1010.12 1010.43 1010.82 1011.21 1011.54 1011.74 1011.78 1011.67 1011.42 1011.11 1010.79 1010.54 1010.41 1010.42 1010.58 1010.87 1011.27 1011.74 1012.24 1012.74
1010.61 1010.32 1010.19 1010.19 1010.26 1010.36 1010.42 1010.43 1010.38 1010.31 1010.25 1010.23 1010.27 1010.34 1010.44 1010.51 1010.53 1010.46 1010.32 1010.13 1009.95 1009.82 1009.80 1009.92 1010.15 1010.47 1010.83 1011.14 1011.36 1011.45 1011.40 1011.24 1011.00 1010.75 1010.54 1010.41 1010.40 1010.51 1010.74 1011.07 1011.48 1011.92 1012.39
1011.49 1011.18 1010.99 1010.90 1010.85 1010.81 1010.74 1010.63 1010.51 1010.40 1010.34 1010.34 1010.41 1010.52 1010.65 1010.75 1010.77 1010.69 1010.51 1010.27 1010.02 1009.81 1009.70 1009.70 1009.83 1010.06 1010.34 1010.61 1010.83 1010.95 1010.97 1010.90 1010.76 1010.59 1010.45 1010.36 1010.35 1010.43 1010.60 1010.86 1011.18 1011.55 1011.97
1012.30 1011.99 1011.76 1011.59 1011.44 1011.29 1011.11 1010.93 1010.76 1010.62 1010.56 1010.58 1010.68 1010.82 1010.97 1011.07 1011.08 1010.98 1010.77 1010.48 1010.17 1009.87 1009.66 1009.54 1009.54 1009.64 1009.81 1010.00 1010.18 1010.30 1010.37 1010.37 1010.33 1010.27 1010.21 1010.18 1010.20 1010.27 1010.39 1010.58 1010.82 1011.11 1011.46
1012.99 1012.69 1012.44 1012.22 1012.01 1011.79 1011.56 1011.33 1011.14 1011.01 1010.96 1011.00 1011.11 1011.26 1011.40 1011.48 1011.47 1011.34 1011.09 1010.76 1010.39 1010.02 1009.71 1009.48 1009.34 1009.29 1009.32 1009.39 1009.48 1009.56 1009.63 1009.68 1009.72 1009.75 1009.78 1009.83 1009.89 1009.97 1010.07 1010.21 1010.38 1010.60 1010.87
1013.57 1013.29 1013.03 1012.79 1012.55 1012.31 1012.06 1011.83 1011.65 1011.54 1011.51 1011.56 1011.67 1011.80 1011.91 1011.96 1011.90 1011.74 1011.46 1011.10 1010.69 1010.27 1009.88 1009.54 1009.27 1009.07 1008.94 1008.85 1008.81 1008.81 1008.83 1008.88 1008.96 1009.06 1009.18 1009.30 1009.42 1009.53 1009.63 1009.74 1009.86 1010.02 1010.24
1014.07 1013.80 1013.54 1013.30 1013.06 1012.81 1012.58 1012.38 1012.24 1012.16 1012.16 1012.21 1012.31 1012.40 1012.46 1012.45 1012.35 1012.14 1011.84 1011.47 1011.05 1010.60 1010.16 1009.74 1009.35 1009.01 1008.70 1008.45 1008.25 1008.11 1008.05 1008.06 1008.14 1008.28 1008.46 1008.65 1008.83 1008.98 1009.10 1009.20 1009.30 1009.42 1009.59
1014.51 1014.25 1014.00 1013.76 1013.52 1013.29 1013.09 1012.93 1012.83 1012.79 1012.81 1012.86 1012.92 1012.96 1012.95 1012.88 1012.72 1012.49 1012.18 1011.81 1011.40 1010.97 1010.52 1010.05 1009.58 1009.10 1008.64 1008.21 1007.84 1007.55 1007.37 1007.30 1007.35 1007.49 1007.70 1007.94 1008.17 1008.37 1008.52 1008.63 1008.72 1008.82 1008.96
1014.94 1014.69 1014.44 1014.19 1013.95 1013.73 1013.56 1013.43 1013.36 1013.35 1013.37 1013.40 1013.42 1013.39 1013.32 1013.18 1012.98 1012.72 1012.41 1012.07 1011.71 1011.31 1010.88 1010.40 1009.88 1009.32 1008.73 1008.15 1007.62 1007.18 1006.87 1006.71 1006.69 1006.80 1007.02 1007.28 1007.54 1007.78 1007.96 1008.09 1008.18 1008.26 1008.37
1015.39 1015.14 1014.87 1014.60 1014.35 1014.13 1013.95 1013.84 1013.78 1013.77 1013.78 1013.78 1013.74 1013.66 1013.52 1013.32 1013.08 1012.81 1012.52 1012.23 1011.92 1011.58 1011.20 1010.74 1010.21 1009.60 1008.93 1008.25 1007.59 1007.03 1006.60 1006.33 1006.24 1006.30 1006.49 1006.75 1007.02 1007.27 1007.47 1007.61 1007.69 1007.76 1007.84
1015.85 1015.60 1015.31 1015.02 1014.73 1014.48 1014.29 1014.16 1014.09 1014.05 1014.03 1013.98 1013.90 1013.76 1013.56 1013.31 1013.04 1012.77 1012.50 1012.26 1012.01 1011.75 1011.43 1011.03 1010.52 1009.91 1009.21 1008.47 1007.74 1007.09 1006.57 1006.22 1006.05 1006.05 1006.19 1006.41 1006.66 1006.90 1007.08 1007.21 1007.28 1007.32 1007.36
1016.32 1016.07 1015.77 1015.44 1015.11 1014.82 1014.58 1014.41 1014.30 1014.22 1014.15 1014.06 1013.93 1013.73 1013.49 1013.21 1012.92 1012.64 1012.40 1012.20 1012.01 1011.82 1011.57 1011.24 1010.79 1010.22 1009.54 1008.80 1008.05 1007.36 1006.79 1006.37 1006.13 1006.06 1006.13 1006.28 1006.48 1006.66 1006.81 1006.90 1006.94 1006.94 1006.94
1016.75 1016.52 1016.22 1015.86 1015.50 1015.16 1014.87 1014.64 1014.47 1014.34 1014.23 1014.09 1013.90 1013.67 1013.39 1013.09 1012.79 1012.51 1012.29 1012.12 1011.97 1011.83 1011.65 1011.39 1011.01 1010.51 1009.89 1009.20 1008.48 1007.80 1007.21 1006.75 1006.45 1006.30 1006.28 1006.34 1006.45 1006.55 1006.63 1006.66 1006.65 1006.61 1006.56
1017.12 1016.92 1016.63 1016.27 1015.88 1015.50 1015.16 1014.88 1014.66 1014.48 1014.31 1014.13 1013.92 1013.66 1013.36 1013.04 1012.73 1012.45 1012.23 1012.07 1011.95 1011.84 1011.71 1011.51 1011.20 1010.79 1010.26 1009.64 1008.99 1008.35 1007.77 1007.29 1006.94 1006.71 1006.58 1006.53 1006.53 1006.52 1006.51 1006.46 1006.39 1006.29 1006.20
1017.38 1017.23 1016.98 1016.64 1016.25 1015.85 1015.49 1015.16 1014.90 1014.67 1014.47 1014.26 1014.03 1013.75 1013.45 1013.12 1012.80 1012.51 1012.28 1012.10 1011.98 1011.87 1011.76 1011.60 1011.37 1011.03 1010.59 1010.08 1009.51 1008.93 1008.39 1007.90 1007.50 1007.19 1006.95 1006.78 1006.64 1006.52 1006.39 1006.26 1006.12 1005.99 1005.86
1017.49 1017.41 1017.21 1016.92 1016.56 1016.18 1015.81 1015.47 1015.18 1014.93 1014.70 1014.48 1014.24 1013.96 1013.66 1013.33 1013.00 1012.69 1012.43 1012.22 1012.06 1011.94 1011.82 1011.68 1011.48 1011.21 1010.86 1010.44 1009.96 1009.45 1008.94 1008.46 1008.02 1007.63 1007.29 1006.99 1006.72 1006.48 1006.25 1006.03 1005.84 1005.66 1005.51
1017.44 1017.43 1017.31 1017.09 1016.79 1016.45 1016.10 1015.77 1015.47 1015.22 1014.98 1014.76 1014.52 1014.25 1013.95 1013.62 1013.28 1012.94 1012.64 1012.38 1012.17 1012.00 1011.85 1011.69 1011.52 1011.29 1011.01 1010.66 1010.26 1009.82 1009.35 1008.87 1008.40 1007.95 1007.51 1007.10 1006.72 1006.37 1006.04 1005.76 1005.51 1005.31 1005.15
1017.23 1017.29 1017.25 1017.11 1016.89 1016.61 1016.30 1016.00 1015.72 1015.47 1015.25 1015.03 1014.79 1014.53 1014.24 1013.91 1013.55 1013.19 1012.84 1012.52 1012.24 1012.00 1011.79 1011.61 1011.42 1011.22 1010.97 1010.69 1010.35 1009.97 1009.54 1009.07 1008.59 1008.08 1007.58 1007.09 1006.62 1006.18 1005.79 1005.45 1005.17 1004.95 1004.78
Thickness
5819 5815 5801 5797 5793 5791 5789 5787 5784 5782 5780 5777 5774 5772 5769 5766 5764 5762 5759 5757 5755 5753 5752 5750 5749 5748 5747 5746 5745 5744 5744 5743 5742 5742 5741 5740 5740 5739 5739 5738 5738 5741 5738
5821 5812 5799 5795 5791 5788 5786 5784 5782 5779 5777 5774 5771 5769 5766 5764 5762 5759 5757 5754 5752 5751 5749 5748 5746 5745 5744 5743 5742 5741 5741 5740 5739 5739 5739 5738 5738 5737 5737 5736 5737 5739 5736
5817 5809 5797 5792 5789 5786 5783 5781 5779 5776 5773 5771 5768 5766 5764 5761 5759 5756 5754 5751 5750 5748 5746 5745 5743 5742 5741 5740 5739 5738 5738 5737 5736 5736 5737 5741 5741 5737 5735 5734 5734 5733 5733
5814 5806 5798 5790 5786 5783 5780 5777 5775 5772 5769 5767 5764 5762 5760 5758 5756 5753 5751 5749 5747 5745 5744 5742 5741 5739 5738 5737 5736 5735 5734 5734 5734 5734 5737 5742 5742 5737 5733 5732 5731 5730 5729
5810 5805 5795 5787 5783 5780 5776 5773 5771 5768 5766 5763 5761 5758 5756 5754 5752 5750 5748 5746 5745 5743 5741 5740 5738 5737 5735 5734 5733 5732 5732 5731 5731 5732 5738 5740 5739 5734 5731 5729 5728 5728 5726
5807 5802 5792 5784 5780 5776 5773 5770 5767 5765 5762 5759 5757 5755 5752 5751 5749 5747 5745 5743 5741 5740 5738 5737 5735 5733 5732 5731 5730 5729 5729 5728 5729 5734 5736 5736 5736 5731 5728 5727 5726 5725 5724
5803 5799 5789 5780 5776 5773 5770 5766 5764 5761 5758 5756 5754 5751 5749 5747 5746 5744 5742 5740 5738 5736 5735 5734 5732 5730 5729 5727 5727 5726 5725 5725 5727 5733 5734 5733 5733 5729 5726 5724 5723 5722 5721
5799 5795 5785 5777 5773 5769 5766 5763 5760 5757 5754 5752 5750 5748 5746 5744 5742 5740 5739 5737 5735 5733 5731 5730 5729 5727 5725 5724 5723 5723 5722 5722 5726 5730 5730 5731 5729 5726 5723 5722 5721 5720 5719
5794 5790 5783 5777 5771 5766 5763 5760 5757 5754 5751 5748 5746 5744 5742 5740 5737 5736 5735 5733 5731 5729 5728 5726 5726 5724 5723 5721 5720 5719 5719 5719 5722 5727 5728 5728 5725 5722 5720 5719 5718 5717 5716
5788 5785 5779 5776 5771 5766 5761 5757 5753 5751 5748 5745 5742 5740 5738 5736 5734 5733 5732 5729 5728 5726 5725 5723 5722 5721 5720 5719 5717 5716 5716 5716 5721 5724 5724 5724 5721 5718 5716 5715 5715 5714 5714
5781 5779 5775 5772 5769 5765 5762 5756 5751 5748 5745 5742 5739 5737 5735 5735 5734 5732 5729 5726 5724 5723 5721 5720 5719 5717 5717 5716 5716 5714 5714 5717 5720 5720 5720 5719 5717 5714 5712 5712 5712 5712 5711
5773 5772 5771 5768 5765 5762 5759 5754 5750 5747 5744 5741 5739 5736 5733 5732 5730 5729 5726 5722 5720 5718 5718 5717 5715 5715 5714 5717 5716 5713 5714 5716 5717 5717 5717 5714 5712 5711 5710 5709 5709 5709 5709
5771 5768 5767 5764 5760 5757 5754 5750 5746 5743 5740 5737 5735 5732 5730 5728 5727 5725 5723 5720 5718 5716 5716 5715 5714 5714 5715 5714 5714 5714 5713 5714 5715 5715 5714 5710 5708 5707 5707 5707 5707 5706 5706
5768 5764 5763 5760 5755 5751 5748 5744 5741 5738 5735 5733 5729 5727 5725 5724 5722 5720 5717 5716 5715 5714 5713 5712 5712 5712 5711 5710 5710 5710 5710 5710 5711 5711 5710 5707 5705 5704 5704 5704 5704 5703 5703
5761 5759 5758 5754 5749 5744 5740 5738 5735 5732 5730 5727 5724 5721 5720 5719 5717 5715 5712 5710 5710 5710 5709 5708 5708 5708 5707 5707 5707 5706 5705 5706 5706 5707 5707 5704 5702 5700 5701 5701 5701 5701 5700
5755 5753 5752 5748 5743 5738 5734 5731 5729 5727 5724 5722 5720 5717 5714 5713 5710 5709 5707 5705 5705 5705 5704 5703 5704 5703 5703 5703 5702 5702 5702 5703 5702 5701 5702 5701 5698 5697 5697 5697 5697 5697 5697
5749 5747 5745 5742 5738 5733 5729 5726 5724 5721 5719 5717 5714 5711 5708 5706 5704 5703 5702 5701 5701 5700 5699 5699 5699 5698 5698 5698 5698 5698 5698 5698 5699 5698 5698 5697 5697 5696 5695 5694 5694 5694 5694
5743 5741 5738 5737 5732 5728 5724 5721 5719 5717 5714 5712 5709 5707 5704 5701 5699 5698 5697 5697 5695 5695 5695 5694 5693 5692 5692 5692 5692 5693 5693 5693 5694 5695 5695 5694 5694 5695 5693 5691 5690 5690 5690
5736 5734 5731 5728 5725 5722 5719 5716 5714 5712 5709 5707 5705 5703 5700 5697 5695 5693 5691 5690 5689 5689 5688 5688 5687 5686 5685 5686 5687 5688 5689 5689 5690 5691 5691 5691 5690 5690 5690 5689 5687 5686 5686
5730 5727 5724 5722 5718 5716 5713 5710 5708 5706 5704 5702 5700 5697 5694 5692 5690 5688 5687 5684 5683 5682 5680 5680 5679 5678 5679 5679 5682 5683 5683 5684 5685 5686 5686 5687 5686 5686 5686 5686 5685 5684 5682
5723 5720 5718 5715 5712 5709 5707 5704 5701 5699 5697 5696 5694 5691 5689 5686 5685 5682 5681 5679 5677 5676 5674 5674 5673 5674 5673 5674 5673 5674 5678 5680 5679 5679 5681 5681 5682 5681 5681 5681 5681 5681 5680
5715 5714 5712 5709 5706 5703 5700 5698 5695 5693 5693 5691 5689 5685 5683 5681 5680 5680 5676 5675 5673 5671 5669 5669 5668 5668 5669 5668 5665 5665 5667 5670 5671 5675 5674 5674 5675 5676 5676 5677 5676 5675 5675
5708 5707 5706 5702 5699 5697 5694 5694 5691 5689 5688 5686 5683 5681 5679 5677 5676 5674 5673 5671 5669 5668 5666 5664 5663 5661 5661 5661 5660 5657 5657 5659 5662 5666 5667 5668 5667 5668 5669 5670 5669 5669 5669
5703 5702 5699 5696 5694 5691 5689 5688 5684 5682 5680 5679 5678 5676 5674 5673 5672 5670 5668 5667 5665 5663 5661 5660 5660 5657 5655 5654 5654 5653 5652 5652 5650 5654 5659 5660 5660 5659 5661 5662 5663 5662 5662
5698 5696 5694 5691 5688 5685 5683 5681 5679 5677 5675 5675 5673 5671 5669 5669 5666 5665 5663 5662 5660 5659 5657 5655 5654 5652 5651 5649 5649 5648 5647 5646 5645 5644 5646 5650 5652 5653 5654 5655 5656 5656 5656
5692 5690 5688 5684 5681 5679 5677 5676 5673 5671 5669 5667 5666 5665 5665 5665 5662 5660 5660 5657 5656 5654 5652 5650 5649 5648 5646 5644 5643 5643 5641 5640 5639 5638 5638 5640 5643 5645 5646 5647 5648 5648 5648